This is the latest recevied weather packets stored in our database for station/object SV1JSO-13. If no packets are shown the sender has not sent any weather packets the latest 10 day(s).
| Time | Temp. | Humidity | Pressure | Rain* | Wind** | Luminosity | Snow |
|---|---|---|---|---|---|---|---|
| 1788331200 | 30.56° C | 41% | 1009.2 hPa | 0 mm | - | 334 W/m² | - |
| 1788330900 | 29.44° C | 42% | 1009.2 hPa | 0 mm | - | 321 W/m² | - |
| 1788330600 | 29.44° C | 43% | 1009 hPa | 0 mm | - | 309 W/m² | - |
| 1788330300 | 30° C | 43% | 1009.1 hPa | 0 mm | - | 290 W/m² | - |
| 1788330000 | 29.44° C | 44% | 1009.1 hPa | 0 mm | - | 275 W/m² | - |
| 1788329700 | 29.44° C | 43% | 1009.1 hPa | 0 mm | - | 260 W/m² | - |
| 1788329400 | 30° C | 42% | 1009 hPa | 0 mm | - | 245 W/m² | - |
| 1788329100 | 30° C | 40% | 1009.2 hPa | 0 mm | - | 230 W/m² | - |
| 1788328800 | 30.56° C | 38% | 1009.3 hPa | 0 mm | - | 215 W/m² | - |
| 1788328500 | 30° C | 39% | 1009.2 hPa | 0 mm | - | 200 W/m² | - |
| 1788328200 | 30.56° C | 38% | 1009.1 hPa | 0 mm | - | 187 W/m² | - |
| 1788327900 | 29.44° C | 40% | 1009.1 hPa | 0 mm | - | 175 W/m² | - |
| 1788327600 | 29.44° C | 41% | 1009.1 hPa | 0 mm | - | 164 W/m² | - |
| 1788327300 | 28.89° C | 41% | 1009 hPa | 0 mm | - | 151 W/m² | - |
| 1788327000 | 28.89° C | 41% | 1009 hPa | 0 mm | - | 140 W/m² | - |
| 1788326700 | 28.89° C | 41% | 1009.1 hPa | 0 mm | - | 125 W/m² | - |
| 1788326400 | 28.89° C | 42% | 1009 hPa | 0 mm | - | 114 W/m² | - |
| 1788326100 | 28.89° C | 40% | 1009.1 hPa | 0 mm | - | 106 W/m² | - |
| 1788325800 | 28.89° C | 41% | 1009.1 hPa | 0 mm | - | 95 W/m² | - |
| 1788325500 | 28.33° C | 42% | 1009.1 hPa | 0 mm | - | 84 W/m² | - |
| 1788325200 | 28.33° C | 43% | 1009 hPa | 0 mm | - | 75 W/m² | - |
| 1788324900 | 28.33° C | 43% | 1009 hPa | 0 mm | - | 67 W/m² | - |
| 1788324600 | 28.33° C | 42% | 1009 hPa | 0 mm | - | 60 W/m² | - |
| 1788324300 | 28.33° C | 42% | 1009 hPa | 0 mm | - | 51 W/m² | - |
| 1788324000 | 28.33° C | 41% | 1008.9 hPa | 0 mm | - | 42 W/m² | - |
* Rain latest hour (hover to see other rain measurements)
** Current wind speed in m/s (hover to see current wind gust speed)